Flight Information

DEPARTURE
EUGENE, OR
Elevation:
373
Runways:
16L/34R - 6000x150 - ASPH-G
16R/34L - 8009x150 - ASPH-G
Active PE Departure:
34L - 34R
Current PE ATIS:
Q
Altimeter:
30.31
Remarks:
SIMULTANEOUS APPROACHES TO PARALLEL RUNWAYS IN USE.
ATIS:
125.225 541-607-4699
Clearance Delivery:
121.7
Ground:
121.7
Tower:
EUGENE TOWER 118.9 RY 16R/34L 124.15 RY 16L/34R
DESTINATION
,
Elevation:
TPA:
1000 (est.)


6788.9 NM66° True-18° Var47° HDG

Flight Plan:
(click to file on line)

1. Type
2. Aircraft Identification
3. Aircraft Type / Special Equipment
4. True Airspeed
kts
5. Departure Airport
(ICAO code)
6. Arriving Airport
(ICAO code)
7. Cruising Altitude
ft
8. Alternate Airport
(ICAO code)
9. Route of Flight
10. Remarks


00:00:00 Departure ATIS: Destination ATIS:

Clearance Limit:
Route:
Altitude: Expect in minutes
Frequency:
Transponder: (7500 Hijack / 7600 Lost Comms / 7700 Emergency)


KEUG 110254Z 33008KT 10SM BKN065 08/M01 A3031 RMK AO2 SLP266 T00781011 51003
Time: 2021-04-11T02:54:00Z
1618111253
Winds: 330 @ 8 kts
Visibility: 10.0 sm
Clouds (AGL): BKN 6500
Temperature: 7.8 C
Dew Point: -1.1 C
Pressure: 30.31004 in Hgbr


Notes:

Data extracted from FAA Digital Chart Supplement. Effective: 0901Z Thursday, Feb 25, 2021 to 0901Z Thursday, APR 22, 2021
Current ATIS data is provided courtisy of PilotEdge.